Location: Chimay
(50.0486°N, 4.3171°E)
Time: 08:17:29
(UTC+00:00)

Cosmos 1725 Rocket - Pass Details

Date: 08 August 2020
Orbit: 961 x 991 km, 82.9° (Epoch: 26 September)

Event Time Altitude Azimuth Distance (km) Brightness Sun altitude
Exits shadow 22:27:15 42° 154° (SSE) 1,385 4.3 -21.8°
Maximum altitude 22:29:18 62° 94° (E) 1,106 4.1 -21.9°
Drops below altitude 10° 22:35:33 10° 15° (NNE) 2,766 7.1 -22.2°
Sets 22:38:06 0° 12° (NNE) 3,720 8.0 -22.4°
